Weather History for Lawrence, MA

Change the Weather History Date:

Wednesday, June 25, 2014

  Actual Average Record
Temperature  
Mean Temperature 78 °F -  
Max Temperature 89 °F 78 °F 97 °F (1943)
Min Temperature 66 °F 58 °F 49 °F (1927)
Cooling Degree Days 12    
Growing Degree Days 28 (Base 50)    
Moisture  
Dew Point 62 °F    
Average Humidity 60    
Maximum Humidity 76    
Minimum Humidity 46    
Precipitation  
Precipitation 0.00 in - - ()
Sea Level Pressure  
Sea Level Pressure 29.92 in    
Wind  
Wind Speed 9 mph (SSW)    
Max Wind Speed 14 mph    
Max Gust Speed 22 mph    
Visibility 10 miles    
Events      
Averages and records for this station are not official NWS values.
T = Trace of Precipitation, MM = Missing Value Source: NWS Daily Summary

Daily Weather History Graph

Daily Weather History Graph

Search for Another Location

Airport:

Trip Planner

Search our weather history database for the weather conditions in past years. The results will help you decide how hot, cold, wet, or windy it might be!

Date:

Astronomy

Jun. 25, 2014 Rise Set
Actual Time 5:07 AM EDT 8:26 PM EDT
Civil Twilight 4:32 AM EDT 9:01 PM EDT
Nautical Twilight 3:46 AM EDT 9:47 PM EDT
Astronomical Twilight 2:50 AM EDT 10:43 PM EDT
Moon 3:58 AM EDT (6/25) 6:54 PM EDT (6/25)
Length of Visible Light 16h 29m
Length of Day
15h 19m
Waning Crescent, 3% of the Moon is Illuminated
Jun 25
Waning Crescent
Jun 27
New
Jul 5
First Quarter
Jul 12
Full
Jul 18
Last Quarter

Hourly Weather History & Observations

Time (EDT) Temp. Heat Index Dew Point Humidity Pressure Visibility Wind Dir Wind Speed Gust Speed Precip Events Conditions
12:54 AM 66.9 °F - 53.1 °F 61% 30.00 in 10.0 mi SSW 9.2 mph - N/A   Clear
1:54 AM 66.9 °F - 53.1 °F 61% 29.99 in 10.0 mi SSW 8.1 mph - N/A   Clear
2:54 AM 66.0 °F - 52.0 °F 60% 29.98 in 10.0 mi SSW 8.1 mph - N/A   Clear
3:54 AM 66.0 °F - 51.1 °F 59% 29.97 in 10.0 mi SSW 8.1 mph - N/A   Mostly Cloudy
4:54 AM 66.0 °F - 52.0 °F 60% 29.97 in 10.0 mi SSW 6.9 mph - N/A   Mostly Cloudy
5:54 AM 66.0 °F - 54.0 °F 65% 29.97 in 10.0 mi SSW 8.1 mph - N/A   Partly Cloudy
6:54 AM 68.0 °F - 57.0 °F 68% 29.97 in 10.0 mi SSW 9.2 mph - N/A   Partly Cloudy
7:54 AM 70.0 °F - 59.0 °F 68% 29.97 in 10.0 mi SW 10.4 mph - N/A   Clear
8:54 AM 77.0 °F - 62.1 °F 60% 29.96 in 10.0 mi WSW 12.7 mph - N/A   Clear
9:54 AM 79.0 °F - 63.0 °F 58% 29.95 in 10.0 mi North - - N/A   Clear
10:54 AM 84.9 °F 87.6 °F 66.9 °F 55% 29.94 in 10.0 mi North - - N/A   Clear
11:54 AM 89.1 °F 93.7 °F 69.1 °F 52% 29.92 in 10.0 mi North - - N/A   Scattered Clouds
12:54 PM 87.1 °F 91.3 °F 69.1 °F 55% 29.91 in - WSW 11.5 mph 16.1 mph N/A   Partly Cloudy
1:54 PM 88.0 °F 91.4 °F 68.0 °F 51% 29.89 in 10.0 mi SW 13.8 mph 20.7 mph N/A   Partly Cloudy
2:54 PM 87.1 °F 90.6 °F 68.0 °F 53% 29.88 in 10.0 mi SSW 9.2 mph 18.4 mph N/A   Scattered Clouds
3:54 PM 88.0 °F 90.7 °F 66.9 °F 49% 29.87 in 10.0 mi SSW 10.4 mph 21.9 mph N/A   Partly Cloudy
4:54 PM 88.0 °F 89.6 °F 64.9 °F 46% 29.86 in 10.0 mi SSW 11.5 mph 20.7 mph N/A   Clear
5:54 PM 84.9 °F 86.6 °F 64.9 °F 51% 29.86 in 10.0 mi SSW 10.4 mph - N/A   Clear
6:54 PM 82.9 °F 85.0 °F 66.0 °F 56% 29.87 in 10.0 mi SSW 11.5 mph 17.3 mph N/A   Clear
7:54 PM 81.0 °F 83.0 °F 66.0 °F 60% 29.87 in 10.0 mi SSW 9.2 mph 19.6 mph N/A   Scattered Clouds
8:54 PM 78.8 °F - 66.2 °F 65% 29.89 in 10.0 mi SSW 9.2 mph - N/A   Clear
9:54 PM 77.0 °F - 66.2 °F 69% 29.90 in 10.0 mi SSW 9.2 mph - N/A   Clear
10:54 PM 75.0 °F - 66.9 °F 76% 29.89 in 10.0 mi SSW 9.2 mph - 0.00 in   Partly Cloudy
11:54 PM 75.0 °F - 66.9 °F 76% 29.88 in 10.0 mi SSW 5.8 mph - N/A   Overcast